Home > Weather > Gera > Past weeks

Flag for Germany Weather for the Past 2 Weeks in Gera, Thuringia, Germany

Now
64 °F

Passing clouds.


Feels Like: 64 °F
Forecast: 43 / 72 °F
Wind: 16 mph from East

Location: Leipzig-Schkeuditz

Current Time: May 5, 2016 at 6:25:35 PM

Latest Report: May 5, 2016 at 5:50 PM


Visibility: N/A

Pressure: 30.24 "Hg

Humidity: 49%

Dew Point: 45 °F

Location of GeraLocation

Historic Weather in Gera — Graph

°F

Gera Temperature Yesterday

Maximum temperature yesterday: 55 °F (at 2:50 PM)
Minimum temperature yesterday: 41 °F (at 5:20 AM)
Average temperature yesterday: 48 °F

High & Low Weather Summary for the Past Weeks

 TemperatureHumidityPressure
High66 °F (Apr 30, 2:20 PM)100% (Apr 25, 3:20 AM)30.39 "Hg (Apr 25, 3:20 AM)
Low28 °F (Apr 25, 2:20 AM)32% (Apr 30, 1:50 PM)29.47 "Hg (Apr 26, 3:20 AM)
Average46 °F68%30.01 "Hg
* Reported Apr 20 5:20 PM — May 5 5:20 PM, Gera, Weather by CustomWeather, © 2016

Note: Actual official high and low records may vary slightly from our data, if they occured in-between our weather recording intervals... More about our weather records

Advertising

Gera Weather History for the Previous 24 Hours

Scroll right to see more
 ConditionsComfort  
Time TempWeatherWind HumidityBarometerVisibility
5:20 PM
Thu, May 5
64 °FPassing clouds.15 mph49%30.27 "HgN/A
4:50 PM64 °FPassing clouds.12 mph52%30.27 "HgN/A
4:20 PM64 °FPassing clouds.14 mph49%30.27 "HgN/A
3:50 PM63 °FPassing clouds.14 mph52%30.27 "HgN/A
3:20 PM63 °FScattered clouds.13 mph52%30.30 "HgN/A
2:50 PM63 °FScattered clouds.10 mph52%30.30 "HgN/A
2:20 PM63 °FScattered clouds.10 mph52%30.30 "HgN/A
1:50 PM61 °FPassing clouds.12 mph48%30.33 "HgN/A
1:20 PM61 °FSunny.13 mph55%30.33 "Hg10 mi
12:50 PM59 °FPassing clouds.13 mph55%30.33 "HgN/A
12:20 PM59 °FPassing clouds.9 mph51%30.36 "HgN/A
11:50 AM57 °FPassing clouds.8 mph51%30.36 "HgN/A
11:20 AM57 °FPassing clouds.10 mph51%30.36 "HgN/A
10:50 AM55 °FScattered clouds.9 mph55%30.36 "HgN/A
10:20 AM55 °FPassing clouds.8 mph55%30.36 "HgN/A
9:50 AM54 °FPassing clouds.9 mph58%30.36 "HgN/A
9:20 AM54 °FSunny.9 mph58%30.39 "Hg10 mi
8:50 AM54 °FPassing clouds.8 mph58%30.39 "HgN/A
8:20 AM52 °FSunny.9 mph67%30.36 "Hg10 mi
7:50 AM50 °FSunny.6 mph71%30.36 "Hg10 mi
7:20 AM48 °FSunny.7 mph76%30.36 "Hg10 mi
6:50 AM48 °FSunny.5 mph76%30.36 "Hg10 mi
6:20 AM46 °FClear.5 mph82%30.36 "Hg10 mi
5:50 AM46 °FClear.6 mph82%30.36 "Hg10 mi
5:20 AM46 °FClear.6 mph82%30.36 "Hg10 mi
4:50 AM46 °FClear.6 mph82%30.36 "Hg10 mi
4:20 AM46 °FClear.6 mph87%30.36 "Hg10 mi
3:50 AM46 °FClear.6 mph87%30.36 "Hg10 mi
3:20 AM46 °FClear.5 mph87%30.36 "Hg10 mi
2:50 AM48 °FClear.5 mph82%30.36 "Hg10 mi
2:20 AM48 °FClear.5 mph82%30.36 "Hg10 mi
1:50 AM48 °FClear.6 mph82%30.36 "Hg10 mi
1:20 AM48 °FClear.6 mph82%30.39 "Hg10 mi
12:50 AM48 °FClear.5 mph82%30.39 "Hg10 mi
12:20 AM48 °FClear.6 mph82%30.39 "Hg10 mi
11:50 PM
Wed, May 4
48 °FClear.7 mph82%30.39 "Hg10 mi
11:20 PM48 °FClear.6 mph82%30.39 "Hg10 mi
10:50 PM48 °FClear.5 mph82%30.39 "Hg10 mi
10:20 PM48 °FClear.7 mph82%30.36 "Hg10 mi
9:50 PM48 °FClear.5 mph82%30.36 "Hg10 mi
9:20 PM46 °FSunny.2 mph82%30.36 "Hg10 mi
8:50 PM48 °FSunny.1 mph76%30.36 "Hg10 mi
8:20 PM50 °FSunny.2 mph71%30.36 "Hg10 mi
7:50 PM52 °FScattered clouds.2 mph62%30.36 "HgN/A
7:20 PM54 °FScattered clouds.3 mph58%30.36 "HgN/A
6:50 PM54 °FScattered clouds.5 mph58%30.36 "HgN/A
6:20 PM54 °FScattered clouds.9 mph67%30.36 "HgN/A
Weather by CustomWeather, © 2016

See weather overviewHow to use our weather pages